Date String (YYYY-MM-DD hh:mm:ss) UTC,Instrument flags,Ambient pressure (hPa),Sample flow (lpm),Bypass flow (lpm),Sample temperature (°C),Ambient temperature (°C),ASC tube jacket temperature (°C),LED temperature (°C),Box temperature (°C),Sample RH (%),Span deviation,Mass concentration (μg/m³),Mass concentration (μg/m³),Mass concentration (μg/m³)
DateTimeUTC,F1_M11,P_M11,Q1_M11,Q2_M11,T1_M11,T2_M11,T3_M11,T4_M11,T5_M11,U1_M11,ZSPAN_M11,X0_M11,X2_M11,X1_M11
2022-02-23 09:00:00,,0829.3,5.00,0.00,22.4,23.1,00.0,31.3,24.3,03.8,0000.0,0007.23,0004.46,0004.18
2022-02-23 09:01:00,,0829.2,5.00,0.00,22.4,22.7,00.0,31.3,24.3,03.8,0000.0,0007.23,0004.45,0004.16
2022-02-23 09:02:00,,0829.3,4.99,0.00,22.4,22.3,00.0,31.3,24.2,03.8,0000.0,0007.31,0004.45,0004.15
2022-02-23 09:03:00,,0829.2,5.01,0.00,22.3,21.9,00.0,31.2,24.0,03.8,0000.0,0007.20,0004.42,0004.12
2022-02-23 09:04:00,,0829.2,5.00,0.00,22.3,21.5,00.0,31.2,23.9,03.8,0000.0,0007.11,0004.39,0004.10
2022-02-23 09:05:00,,0829.2,5.00,0.00,22.2,21.2,00.0,31.2,23.8,03.9,0000.0,0007.33,0004.41,0004.09
2022-02-23 09:06:00,,0829.1,5.00,0.00,22.1,21.0,00.0,31.2,23.7,03.9,0000.0,0007.12,0004.38,0004.07
2022-02-23 09:07:00,,0829.0,5.00,0.00,22.1,21.0,00.0,31.2,23.7,03.9,0000.0,0007.46,0004.34,0004.05
2022-02-23 09:08:00,,0829.0,5.01,0.00,22.2,21.8,00.0,31.2,23.8,03.9,0000.0,0007.67,0004.34,0004.04
2022-02-23 09:09:00,,0829.1,5.00,0.00,22.3,22.6,00.0,31.2,24.1,03.9,0000.0,0007.64,0004.33,0004.03
2022-02-23 09:10:00,,0829.1,5.00,0.00,22.4,23.2,00.0,31.3,24.4,03.8,0000.0,0007.69,0004.34,0004.01
2022-02-23 09:11:00,,0829.2,5.00,0.00,22.5,22.9,00.0,31.3,24.4,03.8,0000.0,0007.63,0004.34,0003.99
2022-02-23 09:12:00,,0829.2,4.99,0.00,22.5,22.4,00.0,31.3,24.3,03.8,0000.0,0007.58,0004.32,0003.98
2022-02-23 09:13:00,,0829.2,5.00,0.00,22.4,21.9,00.0,31.3,24.1,03.8,0000.0,0007.52,0004.29,0003.97
2022-02-23 09:14:00,,0829.1,5.00,0.00,22.3,21.4,00.0,31.3,23.9,03.8,0000.0,0007.51,0004.28,0003.97
2022-02-23 09:15:00,,0829.1,5.02,0.00,22.2,21.1,00.0,31.2,23.8,03.9,0000.0,0007.61,0004.29,0003.95
2022-02-23 09:16:00,,0829.1,4.99,0.00,22.2,20.9,00.0,31.2,23.7,03.9,0000.0,0007.54,0004.28,0003.95
2022-02-23 09:17:00,,0829.1,4.99,0.00,22.1,20.8,00.0,31.2,23.6,03.9,0000.0,0007.42,0004.25,0003.94
2022-02-23 09:18:00,,0829.1,5.00,0.00,22.1,21.7,00.0,31.2,23.8,03.9,0000.0,0006.98,0004.23,0003.93
2022-02-23 09:19:00,,0829.1,5.00,0.00,22.3,22.5,00.0,31.2,24.0,03.9,0000.0,0006.38,0004.20,0003.92
2022-02-23 09:20:00,,0829.1,5.01,0.00,22.4,23.0,00.0,31.3,24.2,03.8,0000.0,0006.40,0004.21,0003.92
2022-02-23 09:21:00,,0829.1,5.00,0.00,22.4,22.8,00.0,31.3,24.3,03.8,0000.0,0006.39,0004.21,0003.93
2022-02-23 09:22:00,,0829.1,4.99,0.00,22.4,22.4,00.0,31.3,24.2,03.8,0000.0,0006.45,0004.22,0003.95
2022-02-23 09:23:00,,0829.1,5.00,0.00,22.4,22.0,00.0,31.3,24.1,03.8,0000.0,0006.68,0004.29,0004.00
2022-02-23 09:24:00,,0829.1,5.00,0.00,22.3,21.6,00.0,31.3,24.0,03.8,0000.0,0006.94,0004.34,0004.02
2022-02-23 09:25:00,,0829.1,5.00,0.00,22.2,21.3,00.0,31.2,23.9,03.8,0000.0,0006.93,0004.35,0004.03
2022-02-23 09:26:00,,0829.1,4.99,0.00,22.2,21.0,00.0,31.2,23.8,03.9,0000.0,0007.12,0004.37,0004.04
2022-02-23 09:27:00,,0829.1,4.99,0.00,22.1,20.9,00.0,31.2,23.7,03.9,0000.0,0007.32,0004.40,0004.05
2022-02-23 09:28:00,,0829.1,5.00,0.00,22.2,21.6,00.0,31.2,23.8,03.9,0000.0,0007.70,0004.44,0004.06
2022-02-23 09:29:00,,0829.0,5.00,0.00,22.3,22.5,00.0,31.2,24.0,03.8,0000.0,0007.85,0004.47,0004.07
2022-02-23 09:30:00,,0828.9,5.01,0.00,22.4,23.2,00.0,31.3,24.3,03.8,0000.0,0007.86,0004.48,0004.08
2022-02-23 09:31:00,,0829.0,4.98,0.00,22.5,23.0,00.0,31.3,24.4,03.8,0000.0,0008.05,0004.47,0004.08
2022-02-23 09:32:00,,0828.8,5.02,0.00,22.5,22.5,00.0,31.3,24.3,03.8,0000.0,0008.20,0004.44,0004.06
2022-02-23 09:33:00,,0828.8,4.98,0.00,22.4,22.0,00.0,31.3,24.1,03.8,0000.0,0008.13,0004.40,0004.02
2022-02-23 09:34:00,,0829.0,5.01,0.00,22.3,21.6,00.0,31.3,24.0,03.8,0000.0,0008.06,0004.35,0003.97
2022-02-23 09:35:00,,0829.0,5.00,0.00,22.3,21.2,00.0,31.2,23.9,03.8,0000.0,0007.91,0004.28,0003.94
2022-02-23 09:36:00,,0828.9,5.02,0.00,22.2,21.0,00.0,31.2,23.7,03.9,0000.0,0007.91,0004.28,0003.92
2022-02-23 09:37:00,,0828.9,4.99,0.00,22.1,20.8,00.0,31.2,23.6,03.9,0000.0,0007.82,0004.26,0003.91
2022-02-23 09:38:00,,0828.9,5.00,0.00,22.1,21.5,00.0,31.2,23.7,03.9,0000.0,0007.67,0004.21,0003.89
2022-02-23 09:39:00,,0828.8,4.99,0.00,22.3,22.4,00.0,31.2,24.0,03.9,0000.0,0007.30,0004.17,0003.86
2022-02-23 09:40:00,,0828.8,5.01,0.00,22.4,23.1,00.0,31.3,24.2,03.8,0000.0,0007.18,0004.14,0003.83
2022-02-23 09:41:00,,0828.9,5.00,0.00,22.5,23.0,00.0,31.3,24.3,03.8,0000.0,0007.25,0004.12,0003.80
2022-02-23 09:42:00,,0828.9,4.99,0.00,22.4,22.4,00.0,31.3,24.2,03.8,0000.0,0007.06,0004.08,0003.74
2022-02-23 09:43:00,,0829.1,5.00,0.00,22.4,21.9,00.0,31.3,24.0,03.8,0000.0,0007.06,0004.03,0003.66
2022-02-23 09:44:00,,0828.8,5.00,0.00,22.3,21.6,00.0,31.3,23.9,03.8,0000.0,0007.75,0003.97,0003.59
2022-02-23 09:45:00,,0828.7,5.00,0.00,22.2,21.3,00.0,31.2,23.7,03.8,0000.0,0007.75,0003.89,0003.53
2022-02-23 09:46:00,,0829.0,5.00,0.00,22.1,21.2,00.0,31.2,23.5,03.9,0000.0,0007.82,0003.83,0003.46
2022-02-23 09:47:00,,0828.8,5.01,0.00,22.0,21.6,00.0,31.2,23.6,03.9,0000.0,0008.09,0003.77,0003.39
2022-02-23 09:48:00,,0828.6,4.99,0.00,22.2,22.3,00.0,31.2,23.9,03.8,0000.0,0008.09,0003.69,0003.31
2022-02-23 09:49:00,,0828.6,5.01,0.00,22.3,23.0,00.0,31.3,24.1,03.8,0000.0,0008.01,0003.62,0003.24
2022-02-23 09:50:00,,0828.6,5.00,0.00,22.4,22.9,00.0,31.3,24.2,03.8,0000.0,0007.97,0003.54,0003.17
2022-02-23 09:51:00,,0828.5,5.00,0.00,22.3,22.4,00.0,31.3,24.1,03.8,0000.0,0008.03,0003.49,0003.11
2022-02-23 09:52:00,,0828.9,5.00,0.00,22.3,22.0,00.0,31.3,23.9,03.8,0000.0,0007.94,0003.44,0003.02
2022-02-23 09:53:00,,0828.6,5.01,0.00,22.2,21.7,00.0,31.2,23.8,03.8,0000.0,0007.85,0003.41,0002.98
2022-02-23 09:54:00,,0828.5,5.00,0.00,22.1,21.4,00.0,31.2,23.6,03.8,0000.0,0007.36,0003.41,0003.00
2022-02-23 09:55:00,,0828.7,5.00,0.00,22.0,21.4,00.0,31.2,23.5,03.9,0000.0,0006.76,0003.43,0003.00
2022-02-23 09:56:00,,0828.5,4.99,0.00,22.1,22.0,00.0,31.2,23.7,03.8,0000.0,0006.73,0003.45,0003.01
2022-02-23 09:57:00,,0828.4,5.00,0.00,22.2,22.7,00.0,31.2,24.0,03.8,0000.0,0006.49,0003.43,0003.00
2022-02-23 09:58:00,,0828.3,5.00,0.00,22.4,23.1,00.0,31.3,24.2,03.8,0000.0,0005.92,0003.42,0003.00
2022-02-23 09:59:00,,0828.3,4.99,0.00,22.4,22.7,00.0,31.3,24.2,03.8,0000.0,0005.78,0003.42,0003.01
